Location: Champs
(48.8539°N, 2.6040°E)
Time: 23:31:06
(UTC+00:00)

deb Kosmos-2150 - Pass Details

Date: 25 August 2022
Orbit: 749 x 758 km, 74.1° (Epoch: 24 September)

Event Time Altitude Azimuth Distance (km) Brightness Sun altitude
Rises 03:04:31 0° 149° (SSE) 3,188 ? -16.9°
Reaches altitude 10° 03:07:54 10° 126° (SE) 2,272 ? -16.4°
Maximum altitude 03:10:36 15° 94° (E) 1,982 ? -16.1°
Drops below altitude 10° 03:13:19 10° 62° (ENE) 2,285 ? -15.7°
Sets 03:16:43 0° 39° (NE) 3,218 ? -15.3°
